Regional Weather Roundup
Issued by NWS

Home | Current Version | Previous Version | Graphics & Text | Print | Product List | Glossary On
Versions: 1 2 3 4 5 6 7 8 9 10 11 12 13 14 15 16 17 18 19 20 21 22 23 24 25 26 27 28 29 30 31 32 33 34 35 36 37 38 39 40 41 42 43 44 45 46 47 48 49 50
000
ASUS43 KTOP 160059
RWRKS

WEATHER ROUNDUP FOR KANSAS
NATIONAL WEATHER SERVICE GOODLAND KS
800 PM CDT MON SEP 15 2014

NOTE:  "FAIR" INDICATES FEW OR NO CLOUDS BELOW 12,000 FEET WITH NO
SIGNIFICANT WEATHER AND/OR OBSTRUCTIONS TO VISIBILITY.

KSZ001>006-013>018-027>032-041>047-160200-
NORTHWEST KANSAS

CITY           SKY/WX    TMP DP  RH WIND       PRES   REMARKS
GOODLAND       CLEAR     60  50  69 SE7       30.26F
HAYS           CLEAR     63  48  59 NE7       30.22S
HILL CITY      CLEAR     62  44  51 NE7       30.24S
RUSSELL        CLEAR     61  51  70 NE8       30.21R
$$

KSZ061>065-074>080-084>089-160200-
SOUTHWEST KANSAS

CITY           SKY/WX    TMP DP  RH WIND       PRES   REMARKS
DODGE CITY     CLOUDY    64  54  69 NE9       30.22S
ELKHART          N/A     58  55  90 N6          N/A
GARDEN CITY    CLOUDY    63  54  72 E6        30.23S
GREAT BEND     CLOUDY    64  55  72 NE6       30.21S
LIBERAL        CLOUDY    63  54  72 NE9       30.25S
$$

KSZ066>073-081>083-090>101-160200-
SOUTHEAST KANSAS

CITY           SKY/WX    TMP DP  RH WIND       PRES   REMARKS
CHANUTE        CLOUDY    70  61  73 NE12      30.14R
COFFEYVILLE    MOCLDY    71  68  90 N8        30.11R
HUTCHINSON     CLOUDY    67  57  70 NE5       30.18S
NEWTON         CLEAR     64  54  68 NE5       30.20R
PARSONS        MOCLDY    71  63  75 N6        30.13R
WICHITA INTL   MOCLDY    70  58  65 NE15      30.16R
WICHITA JABRA  CLOUDY    67  57  70 NE13      30.17R
WINFIELD       CLOUDY    72  63  73 NE12      30.15R
$$

KSZ007>012-019>026-033>040-048>060-102>105-160200-
NORTHEAST KANSAS

CITY           SKY/WX    TMP DP  RH WIND       PRES   REMARKS
CONCORDIA      CLEAR     60  48  64 NE8       30.22S
EMPORIA        CLOUDY    64  58  80 NE6       30.17R
LAWRENCE       PTCLDY    61  53  75 N7        30.20R
MANHATTAN      CLEAR     62  52  69 NE8       30.20R
OLATHE IND     CLOUDY    62  54  74 N15       30.19R
OLATHE EXE     CLOUDY    61  53  75 N14       30.18R
SALINA         CLEAR     68  51  54 N10       30.20R
TOPEKA BILLARD CLEAR     61  53  75 N8        30.20R
TOPEKA FORBES  CLEAR     62  52  69 N10G20    30.19R
$$



USA.gov is the U.S. government's official web portal to all federal, state and local government web resources and services.